| time (UTC) | temp F | wind direction | speed MPH | gust MPH | rain 1hr in | rain 24hr in | rain mn in | humidity % | barometer mb |
| 20260510145723 | 86 | 270 | 2.0 | 2.0 | 0.00 | 0.00 | 0.01 | 95 | 994.6 |
| 20260510144723 | 86 | 225 | 1.0 | 1.0 | 0.00 | 0.00 | 0.01 | 94 | 994.2 |
| 20260510143723 | 86 | 293 | 2.0 | 2.0 | 0.00 | 0.00 | 0.01 | 92 | 994.2 |
| 20260510142723 | 87 | 293 | 1.0 | 1.0 | 0.00 | 0.00 | 0.01 | 89 | 993.9 |
| 20260510141223 | 87 | 270 | 0.0 | 0.0 | 0.00 | 0.00 | 0.01 | 87 | 993.6 |
| 20260510140223 | 87 | 315 | 0.0 | 0.0 | 0.00 | 0.00 | 0.01 | 86 | 993.6 |
| 20260510135223 | 88 | 203 | 0.0 | 0.0 | 0.00 | 0.00 | 0.01 | 85 | 993.6 |
| 20260510134223 | 88 | 270 | 0.0 | 0.0 | 0.00 | 0.00 | 0.01 | 84 | 993.2 |
| 20260510051933 | 93 | 113 | 1.0 | 1.0 | 0.00 | 0.00 | 0.01 | 75 | 995.6 |
| 20260510051433 | 93 | 135 | 2.0 | 2.0 | 0.00 | 0.00 | 0.01 | 76 | 995.6 |
| 20260510050432 | 94 | 248 | 2.0 | 2.0 | 0.00 | 0.00 | 0.01 | 75 | 995.6 |
| 20260510044932 | 93 | 45 | 2.0 | 2.0 | 0.00 | 0.00 | 0.01 | 75 | 995.9 |
| 20260510042933 | 93 | 113 | 3.0 | 3.0 | 0.00 | 0.00 | 0.01 | 75 | 995.6 |
| 20260510041932 | 92 | 158 | 2.0 | 2.0 | 0.00 | 0.00 | 0.01 | 76 | 995.6 |
| 20260510032917 | 89 | 23 | 1.0 | 1.0 | 0.00 | 0.00 | 0.01 | 85 | 995.3 |
| 20260510031917 | 87 | 135 | 1.0 | 1.0 | 0.00 | 0.00 | 0.01 | 87 | 994.9 |
| 20260510031417 | 86 | 45 | 1.0 | 1.0 | 0.00 | 0.00 | 0.01 | 90 | 994.9 |
| 20260510024917 | 84 | 90 | 1.0 | 1.0 | 0.00 | 0.00 | 0.01 | 93 | 994.9 |
| 20260510024417 | 84 | 90 | 1.0 | 1.0 | 0.00 | 0.00 | 0.01 | 94 | 994.9 |
| 20260510023918 | 83 | 180 | 1.0 | 1.0 | 0.00 | 0.00 | 0.01 | 96 | 994.6 |
| 20260510022917 | 82 | 113 | 2.0 | 2.0 | 0.00 | 0.00 | 0.01 | 96 | 994.6 |
| 20260510021917 | 82 | 158 | 3.0 | 3.0 | 0.00 | 0.00 | 0.01 | 96 | 994.6 |